Theta_e
315 318 319 319 317 316 313 313 317 321 321 323 325 327 327 324 321 318 318 316 312 314 320 318 316 318 316 313 316 310 305 308 306 304 303 300 299 298 297 296 295 294 293 292 292 293 294 295 296 298 299 301 304 305 308 310 312 312 313 315 314 313 315 318 318 318 318 316 315 313 311 308 306 306 307 306 306 305 305 305 305 305 305 306 306 306
313 319 319 317 318 317 313 312 313 318 318 318 321 322 322 322 320 316 314 314 312 314 319 316 314 317 315 314 314 309 309 310 307 306 304 300 299 298 297 297 295 295 293 292 292 292 293 294 295 297 299 301 302 303 305 307 307 308 312 313 311 311 314 316 315 316 315 313 313 310 307 306 304 304 305 303 302 302 303 303 302 302 302 302 302 303
315 318 316 316 318 316 313 312 311 313 313 315 319 318 318 318 319 318 314 312 311 313 320 317 314 316 315 315 312 306 308 306 301 303 302 300 300 298 298 297 296 296 295 293 292 291 292 293 294 295 297 298 299 300 302 303 304 307 309 309 309 309 310 310 311 312 310 308 308 306 304 304 302 300 300 300 299 300 300 300 300 300 300 300 300 300
319 319 314 315 318 315 314 314 311 312 312 314 318 317 317 317 318 322 318 313 311 311 315 316 314 315 314 314 309 302 302 301 298 300 300 299 300 298 297 296 296 296 295 294 292 291 291 292 293 294 295 296 298 299 301 302 304 306 307 307 307 307 306 306 306 306 306 304 303 302 301 301 299 298 298 299 298 299 299 298 299 298 299 299 299 299
320 318 311 312 316 316 317 315 313 314 314 315 315 314 316 316 317 321 318 315 315 313 311 312 316 320 319 317 312 303 299 299 298 298 298 298 297 296 295 295 295 294 294 294 293 291 290 290 291 292 293 295 297 298 299 301 303 304 305 306 306 305 304 303 303 303 303 302 301 300 299 299 298 297 298 297 296 296 296 296 296 296 297 298 297 298
317 315 312 314 314 315 317 318 317 317 317 318 318 315 314 316 318 319 317 315 320 321 314 312 322 331 330 326 317 306 302 302 300 299 299 298 296 296 296 295 294 294 293 292 292 290 289 289 290 291 292 293 295 295 296 298 300 302 303 303 304 304 303 302 301 301 301 301 300 300 299 298 296 293 291 290 290 291 291 291 292 293 293 294 294 294
317 312 314 320 318 315 315 318 319 317 317 320 320 317 313 313 317 318 318 318 323 325 314 310 320 329 331 329 318 307 305 305 301 301 300 298 297 297 297 296 295 294 293 292 291 289 289 289 289 290 290 291 292 293 295 297 299 300 301 301 302 302 301 301 301 301 301 301 300 299 297 294 292 288 286 286 287 287 288 288 289 289 289 290 290 290
318 314 315 319 320 318 316 318 318 314 319 324 319 318 317 315 318 319 318 320 323 321 315 314 317 321 324 324 315 306 309 308 303 302 301 299 299 298 297 297 296 295 295 294 292 289 288 289 289 289 289 289 290 292 294 297 298 299 300 300 301 301 300 300 300 300 300 300 298 297 294 290 288 287 285 286 286 286 287 287 287 287 287 287 287 287
316 318 319 317 318 319 318 322 319 314 320 323 314 314 318 317 319 320 319 319 317 316 321 321 316 317 324 324 314 308 313 316 309 304 302 299 299 298 298 297 296 295 294 293 292 290 288 288 288 288 288 289 290 292 294 296 298 299 299 300 300 300 299 299 299 298 298 297 296 295 294 290 287 286 286 286 286 286 287 286 286 286 286 286 286 286
313 314 317 318 319 319 320 320 314 315 319 315 309 312 315 315 317 317 318 319 315 314 322 323 316 318 326 328 319 313 316 319 313 305 302 300 298 298 298 297 296 296 294 292 290 289 289 288 288 288 288 289 290 291 293 295 296 297 298 298 298 297 297 296 296 296 295 295 294 293 292 289 286 286 286 286 286 286 286 286 286 286 286 286 286 286
311 307 310 317 318 318 319 312 308 313 314 309 312 316 316 318 318 318 319 317 316 320 322 319 316 317 323 327 322 316 317 319 316 310 303 299 299 298 298 297 296 295 295 293 289 288 289 288 287 288 288 288 288 289 291 293 294 295 296 296 296 294 294 294 293 294 293 292 292 291 289 288 287 287 287 287 286 286 286 286 286 286 286 286 285 285
311 310 312 314 313 313 316 311 306 308 307 310 321 321 319 322 320 319 323 319 320 326 321 314 313 315 320 327 323 317 316 315 318 316 306 300 299 298 297 297 296 295 295 293 291 289 288 288 287 287 287 287 287 288 289 290 292 293 293 294 294 291 291 291 291 291 290 290 289 288 288 287 287 287 287 287 286 286 286 286 285 285 285 285 285 285
315 316 315 312 309 312 319 317 310 308 307 313 322 321 322 325 320 321 325 320 321 323 315 310 313 314 317 323 320 317 316 313 312 311 305 299 298 297 297 296 295 295 294 293 292 289 287 287 287 287 286 286 287 287 288 289 290 291 291 292 292 289 289 289 289 289 288 288 288 287 287 287 287 287 287 286 286 286 286 286 286 285 285 285 285 285
321 319 314 311 312 313 318 318 316 315 312 313 318 321 324 325 325 330 326 320 321 318 310 308 313 316 317 319 317 315 313 308 304 303 302 300 298 297 297 295 295 294 294 293 292 289 287 287 287 287 286 286 286 287 287 288 289 289 289 290 290 288 287 288 288 287 287 287 287 287 287 287 287 287 286 286 286 286 286 286 285 285 285 285 284 284
326 326 318 315 315 314 314 315 320 319 312 313 317 319 322 325 330 334 329 327 327 319 311 309 314 322 322 316 311 307 303 300 300 300 299 300 298 297 297 295 295 295 293 293 292 290 288 288 287 287 286 286 286 286 287 287 288 288 288 288 288 287 287 287 287 287 287 287 287 287 287 287 286 286 286 286 286 285 285 285 285 285 284 284 284 284
321 327 321 314 311 312 313 314 317 317 314 313 315 316 320 323 325 322 318 319 321 320 316 313 317 321 318 312 304 301 300 299 299 299 298 300 298 297 297 296 295 294 293 293 293 291 288 288 288 287 286 286 286 286 286 287 287 288 287 287 287 287 286 287 287 287 287 286 286 286 286 286 286 286 286 286 285 285 285 285 285 285 285 284 284 284
320 324 317 310 310 310 311 314 314 316 319 314 313 318 318 316 321 321 313 309 312 319 320 316 318 317 313 314 308 303 303 302 300 300 299 298 297 297 297 295 295 294 293 292 292 290 288 288 288 287 287 286 286 286 286 286 287 287 287 287 287 286 286 286 286 286 286 286 286 286 286 286 286 286 286 286 286 286 286 286 286 286 285 285 285 285
324 327 315 310 313 309 306 312 313 312 316 316 317 320 314 311 319 322 319 317 317 322 322 317 318 317 316 319 313 306 310 309 303 300 299 297 297 297 296 295 295 294 293 292 291 289 288 288 288 287 287 286 286 286 286 286 286 286 287 287 287 286 286 286 286 286 286 287 287 286 286 287 287 287 287 287 287 287 287 287 286 286 286 286 286 286
320 324 318 310 312 309 305 312 315 309 309 315 317 316 316 319 321 319 320 324 322 323 324 318 315 316 317 319 317 312 315 314 306 300 298 298 297 296 296 296 295 294 293 293 291 289 288 288 288 287 287 286 286 286 286 286 286 286 286 286 286 286 286 286 286 286 287 287 287 287 287 287 287 287 287 287 287 287 287 287 287 287 287 287 287 287
315 320 321 311 309 310 308 312 317 313 309 311 312 310 314 319 321 320 319 321 322 324 325 321 318 319 318 318 319 316 313 312 309 304 300 298 296 296 296 296 295 294 294 293 292 290 288 288 288 288 287 287 286 286 286 286 286 286 286 286 286 286 286 286 286 287 287 287 287 287 287 287 287 287 287 287 287 288 288 287 288 288 287 287 287 287
314 316 321 314 308 311 314 314 315 315 311 311 313 313 313 314 316 319 317 316 321 325 326 323 320 320 317 312 313 314 311 309 309 307 302 297 296 296 296 296 295 294 293 292 292 290 288 288 288 287 287 287 287 287 286 286 286 286 286 286 286 286 286 286 287 287 287 287 287 287 287 287 287 288 288 288 288 288 288 288 288 287 287 286 286 286
315 317 322 318 311 314 319 315 311 312 313 314 314 314 314 314 316 319 318 316 317 320 324 323 320 320 316 308 308 310 311 308 306 305 301 298 297 296 296 296 295 294 294 293 291 289 288 288 288 287 287 287 287 287 287 287 286 286 286 286 286 286 286 287 287 287 287 287 287 287 287 287 288 288 288 288 288 288 288 287 287 286 286 285 285 285
318 320 322 321 316 316 315 310 308 311 313 314 315 315 315 315 316 320 321 318 317 317 318 319 321 321 311 305 307 308 307 305 303 303 302 299 297 296 296 296 295 295 294 293 291 289 288 289 288 287 287 287 287 287 287 287 286 286 286 286 286 286 286 287 287 287 287 287 287 287 288 288 288 288 288 288 288 287 287 286 286 285 285 284 284 284
317 318 319 320 320 318 314 311 309 309 311 313 316 316 315 314 317 320 319 319 320 320 318 318 321 319 310 306 307 304 302 302 300 301 302 300 298 296 296 296 296 295 295 293 291 289 289 289 288 287 287 287 287 287 287 287 287 287 286 286 286 286 286 286 287 287 287 287 287 287 287 288 288 288 288 287 287 286 286 285 285 285 284 284 284 283
316 318 320 321 323 322 319 317 314 312 311 314 317 316 314 315 317 317 316 318 319 320 320 319 320 319 313 307 306 303 302 302 300 299 300 300 299 297 296 296 296 295 295 294 292 290 289 289 288 287 287 287 287 287 287 287 287 287 286 286 286 286 286 286 287 287 287 287 287 287 287 288 287 287 287 286 286 285 285 285 284 284 284 284 283 283
317 321 320 319 321 322 322 322 319 317 314 314 316 315 314 314 315 315 317 318 318 318 319 319 319 319 314 308 307 306 305 306 303 300 300 300 299 297 296 296 295 295 294 294 293 291 290 289 288 288 287 287 287 287 287 287 287 287 286 286 286 286 286 286 287 287 287 287 287 287 287 287 287 286 286 286 285 285 284 284 284 284 284 283 283 283
320 323 319 318 320 320 322 320 316 318 318 316 316 315 314 313 313 315 319 319 318 318 318 318 318 320 317 312 310 309 309 310 307 303 302 301 299 297 297 296 296 295 294 293 293 292 291 290 289 288 287 287 287 287 287 287 287 286 286 286 286 286 286 286 286 286 287 287 287 287 287 286 286 286 286 285 285 285 284 284 284 283 283 282 282 282
321 321 318 318 319 319 321 318 315 318 321 318 317 316 314 313 313 315 316 317 319 320 318 318 318 319 319 316 313 311 310 309 307 306 305 303 300 298 297 297 297 296 295 294 293 293 292 291 289 288 288 288 287 287 287 286 286 286 286 286 285 286 286 286 286 286 287 287 287 286 286 286 286 285 285 285 285 284 284 283 283 283 282 282 281 281
321 321 319 318 318 319 320 318 317 320 321 320 320 318 315 313 312 313 313 315 318 318 317 318 317 317 318 317 314 312 309 307 307 306 304 302 302 300 298 298 297 296 295 295 294 293 292 291 289 289 288 288 288 287 287 287 286 286 286 286 286 286 286 286 286 286 286 286 286 286 286 285 285 285 285 285 284 284 283 283 282 282 281 281 281 281
320 321 320 318 318 319 319 318 317 317 318 319 319 318 317 315 313 312 312 313 315 316 316 316 315 315 316 315 312 309 309 308 306 305 303 303 304 305 303 302 300 298 296 295 294 293 292 291 289 289 289 288 288 288 288 287 287 287 287 286 286 286 286 286 286 286 286 286 286 286 285 285 285 285 285 284 284 283 283 282 281 281 281 281 280 280
317 319 317 317 319 319 316 316 316 315 316 317 317 316 316 315 314 313 313 313 313 314 313 313 312 312 312 313 311 308 306 306 305 305 305 304 305 306 305 304 303 301 298 296 294 293 291 289 288 288 288 288 289 288 289 289 289 288 288 288 288 287 286 286 286 286 286 286 286 285 285 285 284 284 284 284 284 283 282 281 281 280 280 280 280 280
315 315 313 315 320 320 313 311 313 311 311 313 314 314 313 313 314 313 312 312 312 313 313 311 311 311 310 310 310 307 305 305 305 306 305 303 303 303 305 305 304 302 301 300 296 293 291 289 288 288 288 288 289 289 289 289 289 289 290 290 289 288 287 287 286 286 286 286 285 285 285 284 284 284 284 284 283 282 281 280 280 280 280 280 280 279
312 314 314 315 320 317 307 306 310 310 312 315 314 314 313 312 313 311 310 310 309 311 313 312 312 312 310 307 306 306 305 305 306 305 305 303 302 301 302 302 302 302 302 300 297 294 292 289 287 288 289 289 289 290 290 290 290 290 291 291 290 289 288 287 287 286 286 286 285 285 285 284 284 284 284 283 282 281 280 280 279 280 280 280 279 278
310 313 314 314 318 313 302 304 310 313 316 315 309 308 311 312 312 312 310 309 308 309 311 310 310 311 309 306 305 306 304 303 304 302 301 301 301 301 300 300 301 301 298 296 294 292 289 288 288 288 289 289 290 290 290 290 291 291 292 291 290 290 289 288 287 287 286 286 285 285 284 284 283 283 283 283 282 280 280 279 279 280 280 279 278 278
310 312 312 312 313 307 302 306 313 316 315 308 299 298 303 307 310 311 309 308 306 306 308 307 306 307 307 305 304 304 302 300 299 299 298 299 299 299 301 302 302 301 298 297 295 290 286 286 287 287 288 290 290 290 290 290 291 291 291 290 290 289 288 288 287 286 286 286 285 285 284 284 283 283 283 282 281 280 279 279 279 279 279 278 278 278
311 311 311 310 308 305 305 310 315 314 310 304 299 297 297 302 306 308 308 308 305 304 305 306 305 305 304 302 300 299 297 295 295 296 297 297 297 297 300 303 302 300 297 296 293 289 287 288 289 290 290 290 290 290 290 291 291 290 290 290 289 288 287 287 286 286 286 286 285 285 284 283 283 282 282 281 280 279 279 279 279 279 279 278 278 277
310 311 311 311 309 309 309 309 311 311 309 309 307 301 298 302 306 307 310 309 304 301 302 304 306 305 303 300 297 295 295 295 295 296 296 296 295 296 297 297 297 295 292 290 290 291 292 292 292 292 292 291 290 291 291 291 291 290 289 288 288 287 287 286 286 286 286 285 285 284 284 283 282 282 281 280 280 279 279 279 279 279 278 278 277 277
307 309 311 313 312 311 310 310 311 311 312 314 310 301 297 301 302 303 307 308 303 300 301 303 305 304 301 298 295 294 295 297 297 296 296 295 292 291 291 290 289 289 289 289 291 293 292 292 292 291 291 291 291 291 291 290 290 288 288 287 287 286 286 286 286 286 285 285 285 284 283 282 282 281 281 280 280 279 279 279 279 278 277 277 277 276
304 306 309 312 312 310 311 313 313 313 313 312 306 298 295 298 300 302 305 305 304 300 298 300 302 302 300 296 294 295 297 298 298 296 296 296 291 289 291 290 286 286 289 291 292 293 293 293 292 291 291 291 291 291 290 289 288 287 287 287 286 286 285 286 286 286 285 285 284 283 282 282 281 281 281 280 279 279 278 278 278 277 277 276 276 276
304 305 307 310 312 310 310 312 312 312 310 305 301 296 293 295 300 303 304 305 303 298 295 298 301 300 298 295 293 295 298 298 299 297 296 294 289 286 288 289 286 286 288 290 291 292 292 291 291 291 291 291 291 291 290 289 288 287 287 287 286 286 286 287 287 286 285 284 283 282 282 281 281 281 280 279 279 278 278 278 277 277 276 276 275 275
303 304 305 308 310 309 310 311 310 310 306 300 297 295 294 296 300 304 306 306 302 296 292 296 300 297 295 295 293 296 298 296 295 296 294 292 290 288 286 287 288 288 289 290 290 290 289 290 290 290 291 291 291 290 289 289 288 287 287 286 286 286 287 287 286 285 284 283 282 282 282 281 280 280 279 278 278 277 277 277 277 276 276 275 275 275
304 303 304 306 308 308 309 309 309 309 304 298 295 293 293 297 303 305 304 301 299 298 294 293 296 295 294 295 293 295 298 293 291 295 294 292 294 293 287 285 286 287 287 288 288 288 288 288 288 289 290 290 290 289 289 288 288 287 287 286 286 287 287 286 285 284 283 282 282 281 281 280 280 279 278 278 277 277 277 277 276 276 275 275 274 274
305 306 304 305 306 306 307 307 309 310 302 294 293 293 294 300 305 304 299 294 294 297 294 292 294 293 293 295 293 292 294 292 290 293 293 292 294 291 286 284 285 286 286 287 288 288 288 288 288 289 290 289 289 289 288 288 287 287 286 286 287 287 286 285 284 283 282 282 281 281 280 279 279 278 278 277 277 277 277 276 275 275 274 274 274 273
306 307 306 306 306 306 308 307 306 305 298 293 296 298 297 300 302 302 300 296 294 293 291 293 295 290 290 296 297 293 291 291 291 292 292 292 292 290 285 284 284 285 286 287 288 288 288 288 288 289 289 289 289 289 288 288 287 286 285 287 287 286 285 284 283 282 282 281 281 280 279 279 278 278 277 277 277 277 276 275 275 274 274 273 273 273
304 304 304 305 305 304 306 305 300 296 293 293 298 301 299 298 299 299 300 300 296 293 291 294 296 291 288 293 296 293 291 291 291 291 291 291 292 290 287 284 283 285 286 286 287 287 287 287 288 288 288 289 288 288 288 288 287 286 286 287 287 285 284 284 282 282 281 280 280 279 279 278 278 277 277 276 276 276 275 274 274 273 273 273 272 272
296 295 297 300 300 297 298 298 295 293 293 293 296 298 296 296 297 297 299 300 297 294 292 293 295 293 289 289 292 292 293 292 292 291 290 291 291 287 283 282 283 285 285 285 286 286 286 287 287 286 286 287 287 287 287 287 286 287 287 287 286 284 284 283 282 281 280 280 279 279 278 278 277 277 276 275 275 274 274 273 273 272 272 272 272 271
293 292 294 297 299 298 296 294 293 294 294 294 294 294 294 295 295 294 297 298 296 294 291 291 292 291 288 288 290 292 293 292 292 293 291 290 292 288 282 281 283 284 285 286 286 286 286 285 284 284 285 285 286 287 287 286 286 287 287 286 285 284 283 282 281 281 280 280 279 278 278 277 276 276 275 274 274 273 273 273 272 271 271 272 271 271
295 293 295 296 296 296 294 292 290 292 293 292 292 293 294 295 294 293 293 294 293 292 290 288 289 290 290 289 288 290 292 291 290 293 292 290 291 288 282 280 282 284 285 286 286 285 284 283 283 284 284 285 286 287 286 286 286 286 285 284 283 283 282 281 281 280 280 279 279 278 277 276 275 275 274 273 273 273 272 272 271 271 271 271 271 270
295 294 296 296 294 293 291 289 289 291 292 291 292 293 293 294 294 293 292 290 291 292 291 288 287 287 290 291 289 288 291 290 289 291 293 292 290 286 282 282 283 284 285 286 286 284 284 283 283 284 284 285 286 285 285 285 285 284 283 283 282 282 281 281 280 279 279 278 278 277 276 275 274 274 273 272 272 272 271 271 271 270 271 271 270 270
293 295 295 294 294 294 293 291 291 293 295 294 294 293 293 292 291 292 292 292 292 293 292 292 289 285 284 286 286 287 290 291 287 287 290 291 288 284 282 283 283 283 285 286 285 284 283 284 284 284 284 285 285 284 284 284 284 283 282 281 281 280 280 280 279 278 277 277 276 276 275 275 274 273 272 272 271 271 271 270 270 270 270 270 270 270
292 294 294 294 295 296 294 292 292 293 295 295 295 294 293 291 291 292 293 293 293 292 290 291 292 290 287 285 282 283 290 290 285 284 289 289 284 282 284 284 283 284 285 285 284 283 283 283 283 283 283 284 284 283 283 283 283 282 281 280 279 279 279 278 278 277 277 276 276 275 275 274 273 272 271 271 270 270 269 269 269 269 269 268 268 268
Wind_Speed
2 3 3 6 6 7 10 10 7 4 6 6 5 4 4 4 4 3 2 5 1 1 5 5 5 8 11 9 3 2 1 4 3 3 2 1 2 1 1 2 2 2 2 5 9 11 12 13 14 15 16 18 20 21 21 22 23 24 24 24 24 24 25 25 25 24 23 24 23 24 25 27 28 26 25 26 25 25 25 23 22 22 22 21 20 20
4 4 10 9 6 7 9 8 4 3 4 4 4 3 2 4 6 4 1 4 2 2 4 1 2 9 11 9 3 1 1 2 1 2 2 2 2 1 2 2 2 1 2 5 9 12 13 13 14 15 16 18 20 21 22 23 23 23 24 24 24 23 23 23 23 22 23 24 23 24 27 26 26 26 25 26 26 24 23 22 22 23 23 22 22 21
2 6 12 7 6 6 4 5 6 4 3 3 3 3 3 3 3 5 2 3 2 2 3 1 2 9 10 5 2 2 0 0 1 1 2 2 3 2 2 1 1 1 2 4 7 11 12 13 14 16 17 19 19 20 22 23 23 24 25 25 24 24 23 23 23 23 25 26 26 27 28 27 28 29 27 27 27 24 24 24 24 24 23 23 23 23
3 7 9 5 8 7 4 4 6 4 2 3 3 3 4 4 2 3 3 3 2 0 1 1 2 7 8 2 1 2 1 1 2 2 2 1 2 1 1 1 1 2 3 3 4 8 11 12 14 15 16 17 19 20 22 22 23 24 25 25 25 25 25 25 25 25 27 28 28 29 29 29 30 30 28 27 27 25 25 26 26 25 24 23 24 24
6 6 2 6 7 8 5 3 6 5 3 3 5 6 5 5 5 5 3 2 2 3 1 0 3 6 5 3 2 1 1 1 2 3 2 2 1 1 1 1 2 1 2 2 2 5 8 10 11 12 14 16 19 20 21 22 23 23 24 24 25 25 26 27 28 28 28 29 30 31 30 30 31 30 28 29 30 29 29 29 29 28 26 25 25 25
7 4 4 7 5 6 7 3 5 7 4 3 5 10 10 7 6 4 1 3 3 3 2 1 2 4 4 4 4 1 1 1 2 1 0 1 1 1 1 1 1 1 1 2 2 3 5 7 8 11 14 16 18 18 19 21 22 22 23 23 23 23 24 25 26 26 25 26 27 28 29 30 32 32 31 31 33 32 33 32 31 30 28 28 28 27
4 2 4 7 5 6 6 4 6 7 5 2 5 9 10 7 5 4 3 2 1 3 2 1 2 4 5 5 3 1 1 2 1 1 2 2 1 0 1 0 0 1 1 2 3 3 4 5 8 11 13 14 16 17 18 21 22 23 23 23 22 22 22 21 21 22 22 23 25 27 30 32 35 35 32 31 33 34 33 32 31 31 30 29 29 29
4 3 3 5 5 5 5 4 6 7 7 3 4 5 7 7 7 6 6 4 3 2 3 2 3 2 4 4 3 2 3 4 4 3 3 3 2 2 2 1 1 1 1 1 1 2 3 4 7 9 11 13 15 17 19 22 23 24 25 24 24 23 23 22 22 22 23 25 28 30 34 35 36 36 33 32 33 32 31 31 31 30 30 29 29 28
3 5 6 7 5 4 5 4 8 10 5 4 2 5 6 6 6 5 6 4 1 0 3 3 2 2 4 5 2 1 3 7 6 6 6 5 4 4 4 3 2 2 1 2 1 0 2 4 6 8 11 13 16 18 21 23 24 25 25 25 25 25 25 24 24 25 26 28 30 32 34 35 35 35 33 31 31 30 29 30 30 29 29 28 27 26
1 4 7 8 5 5 4 1 6 9 4 4 5 6 5 5 5 4 4 3 2 0 5 6 5 3 4 5 2 1 3 7 5 6 7 6 5 5 5 4 4 3 2 2 2 2 2 4 6 9 12 14 17 19 22 24 25 26 26 26 27 27 26 25 25 26 28 29 30 31 33 35 34 32 31 30 30 29 28 29 28 27 27 26 25 25
1 2 2 4 4 5 4 3 1 3 3 6 6 6 6 5 4 3 2 4 2 3 6 6 7 5 3 4 4 4 4 4 5 4 5 5 5 6 6 5 5 4 3 2 2 3 3 4 7 9 13 15 17 20 23 25 26 27 28 28 29 28 27 26 26 26 28 29 30 31 32 32 32 30 29 29 28 27 26 27 27 26 25 25 24 23
3 1 2 2 2 4 6 5 3 3 4 5 4 4 4 3 3 3 3 3 1 5 5 3 2 4 4 5 4 4 4 4 6 6 9 9 8 8 7 6 5 4 4 3 3 3 4 5 7 9 12 14 17 19 22 25 26 27 27 28 29 29 27 27 26 27 28 29 29 29 29 29 28 27 27 28 27 26 25 26 25 24 23 23 22 22
2 3 3 1 1 4 6 5 4 3 2 3 4 6 4 1 2 1 2 1 3 5 3 2 1 2 5 7 6 6 5 5 5 5 9 12 11 10 9 7 5 4 5 4 3 4 5 6 7 10 12 14 17 19 21 24 25 26 27 27 29 29 27 27 26 27 27 28 28 28 27 27 26 25 25 26 25 24 23 23 22 22 21 21 21 21
3 4 1 2 1 3 8 6 2 1 3 4 5 6 5 2 1 2 3 2 4 3 2 2 1 2 4 5 6 6 5 4 3 3 5 9 12 12 10 8 6 5 5 4 4 4 6 8 9 10 13 15 17 18 21 23 25 26 26 27 28 28 27 26 26 26 26 27 26 25 25 25 24 24 24 24 23 22 22 21 21 21 20 20 20 20
3 4 4 6 2 5 9 7 5 6 5 4 4 5 5 5 4 4 4 3 3 2 2 3 1 4 4 2 4 3 2 3 2 3 3 4 7 8 6 6 6 6 5 4 4 5 8 11 11 11 13 15 17 19 21 23 24 26 26 26 28 28 26 26 25 25 26 26 25 24 23 23 23 23 24 23 22 21 21 20 20 20 19 19 19 18
3 5 5 2 1 6 9 4 5 7 3 2 2 4 3 4 4 2 3 4 2 1 2 2 3 4 4 2 3 2 3 3 3 2 2 4 5 6 6 6 7 7 6 6 5 6 10 12 12 13 14 15 17 19 21 23 24 25 26 26 27 27 25 25 24 24 25 25 24 23 23 22 22 22 23 22 21 20 20 19 18 19 18 18 17 17
2 4 4 2 2 3 5 4 3 3 3 2 2 4 4 3 6 4 2 0 2 2 3 3 3 3 1 2 2 3 3 3 2 2 3 5 6 8 8 8 8 8 7 7 6 7 11 13 14 14 16 17 18 20 21 23 23 24 25 26 26 26 25 24 24 24 23 23 23 23 22 22 21 21 21 21 20 19 18 18 18 18 17 17 17 17
4 2 4 1 1 2 1 3 4 2 3 6 3 5 3 2 4 3 2 2 3 3 4 1 3 2 2 2 3 3 4 6 4 2 3 4 7 9 9 9 10 8 7 7 7 9 12 14 15 15 16 17 18 19 21 22 22 23 24 24 25 25 25 24 23 23 22 22 23 22 21 21 20 20 20 19 19 18 17 18 18 17 17 17 17 17
4 2 4 0 2 1 1 3 4 3 1 5 4 4 4 3 2 2 2 2 1 3 4 2 2 3 4 4 2 4 9 9 6 3 5 7 9 10 10 10 10 7 7 7 7 7 10 14 16 17 17 17 17 18 20 21 22 22 22 22 23 24 24 23 22 22 22 21 21 21 20 19 19 19 18 18 17 16 16 17 16 16 16 16 16 16
3 2 3 1 1 0 1 2 4 3 0 3 2 2 2 2 4 3 2 2 3 2 3 3 2 3 5 5 7 11 12 9 8 7 9 11 10 11 11 11 10 9 9 8 7 6 10 15 17 18 19 18 18 19 20 21 22 22 22 22 23 23 23 22 21 21 21 20 20 19 19 18 17 17 16 15 14 14 15 15 14 14 15 15 15 15
3 3 3 1 1 1 2 4 7 8 5 3 3 4 2 1 2 1 1 2 3 3 2 3 4 3 4 3 6 7 6 7 10 10 10 10 11 11 10 10 11 10 9 8 7 7 11 16 18 19 19 18 19 19 20 22 22 23 23 23 23 23 23 22 21 20 20 19 18 17 17 16 15 14 13 12 11 11 12 12 12 13 13 13 13 14
3 4 4 2 1 3 5 5 3 5 6 6 6 7 7 5 4 2 4 2 2 2 4 3 5 5 3 2 4 4 4 5 8 9 8 9 11 11 9 9 10 9 8 7 7 8 12 16 18 20 20 20 20 20 21 22 23 23 23 23 23 22 22 22 21 20 19 17 16 15 14 13 12 11 10 9 9 8 9 9 10 11 12 13 14 15
3 3 4 3 3 5 6 4 1 1 1 3 3 4 6 5 5 5 6 3 2 1 2 2 3 4 2 2 3 4 5 5 6 7 8 7 8 8 8 8 7 7 6 6 7 10 14 17 18 20 21 21 22 22 23 23 24 24 24 23 23 22 22 21 20 19 17 15 14 13 12 11 10 8 7 6 5 5 6 7 8 10 12 14 15 16
2 3 3 2 2 2 4 4 3 2 2 1 3 3 5 5 4 4 4 3 3 4 3 2 5 4 2 3 3 3 4 4 5 7 7 5 5 7 8 8 7 6 6 7 8 11 14 16 18 20 21 22 23 24 25 25 24 24 24 24 23 22 22 21 20 18 16 14 13 12 10 9 8 6 4 3 2 3 4 6 8 10 12 14 16 17
4 3 4 2 1 2 3 3 1 1 1 3 3 3 5 5 4 2 1 3 2 4 7 5 8 4 2 3 3 2 2 3 4 4 5 5 6 7 8 8 7 7 7 8 8 10 13 16 18 20 22 24 25 26 26 26 25 25 25 25 24 23 22 21 20 18 16 14 13 11 9 8 7 5 3 2 0 2 4 6 8 10 13 15 16 17
5 4 5 6 6 6 5 4 4 3 2 2 2 4 6 8 9 4 2 3 4 4 8 7 8 3 1 3 4 2 2 4 4 4 4 5 6 6 6 7 7 7 8 9 8 8 10 14 17 21 22 25 26 26 26 27 26 27 26 26 25 24 23 22 20 18 16 14 12 11 10 8 7 5 4 3 2 3 4 6 8 11 13 15 16 17
3 3 7 10 10 8 6 4 3 5 6 5 5 7 7 8 10 7 3 4 5 4 5 8 5 3 4 4 5 3 4 5 5 5 6 6 5 5 5 5 6 6 6 7 7 7 9 12 16 20 23 25 26 26 27 28 28 28 28 26 25 24 23 22 21 19 17 15 13 12 11 9 8 7 6 5 5 5 5 7 9 11 13 15 16 17
3 4 8 10 9 6 5 4 4 5 6 8 8 8 9 8 10 10 8 7 6 4 9 7 6 4 7 5 6 6 5 6 5 6 7 6 5 4 4 5 6 6 5 6 7 9 10 10 13 18 23 24 25 26 28 29 30 29 28 27 26 25 24 22 22 21 18 17 15 14 12 11 10 9 8 8 7 7 7 8 10 12 13 15 16 18
4 4 6 7 7 5 4 4 4 4 4 6 7 8 9 9 10 11 11 8 6 6 11 4 6 8 10 6 8 9 8 9 8 7 6 4 4 5 5 5 6 7 7 8 9 10 10 10 13 18 22 23 25 27 28 30 30 29 28 27 27 26 25 24 23 22 20 19 18 16 14 13 12 11 11 10 9 9 9 9 11 13 14 15 17 18
4 3 3 5 5 5 5 5 5 5 4 4 6 9 9 9 10 10 11 11 8 9 11 5 6 13 10 7 10 8 5 5 5 4 4 4 5 5 5 6 6 7 8 9 10 10 10 11 13 16 19 21 25 28 29 30 31 31 30 28 28 28 27 25 24 23 23 21 19 18 16 15 14 13 13 12 11 11 10 11 12 13 14 16 17 19
3 2 3 4 3 4 4 5 5 5 5 5 11 13 9 7 8 10 11 10 8 10 12 9 10 12 7 6 7 3 4 5 4 5 5 5 5 5 5 5 6 6 7 8 9 9 8 9 11 14 18 23 27 30 31 32 32 32 31 30 30 29 28 27 26 25 24 23 21 19 18 17 16 15 15 14 13 12 11 12 13 13 15 16 18 19
3 2 2 3 4 4 1 4 5 3 2 6 16 14 8 7 10 10 9 10 11 12 12 9 9 10 5 5 5 3 5 6 6 7 6 5 5 6 6 7 6 7 7 8 8 7 7 8 12 16 21 25 29 31 32 32 31 30 31 32 32 30 29 28 27 26 25 24 22 21 20 19 19 18 17 16 14 13 12 12 13 14 16 17 19 19
3 4 2 3 4 2 2 2 6 6 2 7 13 10 12 13 13 8 6 8 12 12 9 9 10 7 5 7 7 6 6 6 7 7 6 6 6 7 7 7 7 7 7 7 7 7 8 10 15 20 23 25 28 31 33 32 30 30 32 32 32 31 29 28 27 27 26 24 23 22 22 21 20 19 18 16 15 13 13 13 13 14 17 18 19 20
4 5 3 3 3 1 2 2 6 4 5 6 4 4 11 15 15 13 11 11 12 10 5 2 3 4 7 8 9 9 8 7 6 6 6 5 5 6 6 6 7 8 7 6 6 7 9 12 15 18 21 24 27 30 31 31 30 30 29 29 30 30 29 28 27 26 25 24 23 23 23 23 22 20 19 17 15 14 13 13 13 15 17 19 19 20
6 5 2 2 2 1 1 3 4 5 7 3 3 2 3 7 10 11 10 9 11 11 5 1 3 6 8 9 8 7 6 4 3 4 5 5 6 6 5 7 8 7 6 6 6 7 10 13 15 17 20 23 25 26 27 28 28 27 26 26 27 28 27 27 26 25 24 23 23 24 24 24 22 20 18 16 14 14 13 13 14 16 18 19 19 20
7 5 2 2 3 2 2 4 5 3 3 2 3 3 0 2 3 2 5 7 9 10 8 6 6 6 7 7 4 3 4 3 1 3 6 6 6 7 7 8 8 7 7 8 9 11 14 16 17 18 20 21 21 22 24 25 25 25 24 24 25 25 25 25 24 23 24 24 24 25 25 24 22 20 17 15 14 14 13 14 15 17 18 19 19 20
6 5 2 2 3 3 3 4 2 4 5 5 4 3 3 5 6 6 4 8 8 8 8 7 8 10 8 4 3 3 4 3 3 4 7 8 8 9 9 8 7 8 10 12 13 13 14 15 15 15 16 17 18 20 21 21 22 23 23 22 22 23 23 23 24 24 24 25 25 25 25 23 21 18 16 15 14 14 14 15 16 17 19 19 20 20
3 4 3 4 4 3 3 3 2 3 7 7 3 2 3 5 6 7 3 4 4 6 11 10 10 11 7 4 4 3 4 3 4 6 6 7 7 7 7 7 8 10 12 13 13 12 12 12 13 13 13 14 15 17 19 20 21 22 22 22 22 22 23 23 25 25 25 26 26 25 24 22 19 17 15 15 15 14 15 15 16 17 18 19 20 21
2 1 2 3 2 3 3 4 5 6 6 3 3 2 1 4 6 7 3 4 4 7 10 10 10 10 6 6 6 5 5 2 5 6 4 6 7 7 7 7 9 11 12 12 13 12 12 13 12 12 13 13 14 16 17 19 20 21 22 22 22 23 24 25 25 26 26 26 25 24 22 20 18 16 15 15 15 14 15 16 16 17 18 18 20 21
2 1 2 4 4 4 5 5 4 4 3 2 4 3 3 3 6 8 1 5 4 6 7 9 10 8 6 8 7 6 6 5 6 5 4 5 7 8 9 9 10 12 13 13 13 12 12 13 13 14 15 16 16 17 17 17 19 21 22 22 23 24 25 25 25 25 25 24 23 23 21 19 17 16 15 15 15 15 15 15 16 17 18 19 20 21
1 0 2 5 6 6 8 6 3 3 3 4 5 5 4 2 5 4 5 4 4 7 7 8 9 7 7 9 7 6 6 6 4 2 2 5 6 7 10 12 12 13 14 14 15 14 14 15 16 17 17 18 18 18 18 18 19 21 22 22 24 25 24 24 24 24 24 24 23 22 21 18 17 16 16 15 15 15 15 15 17 18 18 19 20 21
2 1 1 3 4 4 5 4 3 4 3 5 4 2 3 3 2 3 4 2 5 8 7 6 6 7 9 10 8 7 6 4 5 3 2 4 5 6 9 11 11 11 12 13 14 15 16 18 19 20 20 19 20 20 20 21 22 22 23 24 25 25 24 24 23 24 24 24 23 22 20 18 17 16 16 15 15 15 16 16 17 18 18 19 20 21
5 4 2 4 4 1 2 4 4 4 3 9 9 2 1 4 4 4 2 2 3 6 7 6 6 7 9 9 8 8 6 4 4 3 3 4 4 4 6 9 12 13 14 14 16 18 20 21 22 23 23 22 22 22 22 23 24 24 25 26 26 25 24 24 24 24 25 25 23 22 20 19 18 16 15 16 16 16 17 16 17 17 18 18 19 20
3 4 4 4 4 3 4 6 4 1 6 12 11 5 5 6 4 5 6 3 2 3 6 6 6 7 9 8 8 9 6 3 4 4 4 5 6 5 5 8 12 15 16 18 20 22 23 24 25 26 25 25 25 24 25 26 27 27 28 28 28 26 25 25 25 25 26 25 24 22 20 19 17 16 16 16 17 18 17 17 17 17 17 18 19 20
3 3 4 3 3 4 4 4 1 2 5 9 5 3 5 5 3 5 7 5 3 4 5 5 6 7 8 8 7 7 6 6 6 5 6 6 7 7 7 9 13 16 18 20 21 21 23 27 27 26 27 27 27 27 28 29 29 30 31 31 29 28 27 26 26 27 27 26 24 22 20 19 18 17 17 18 18 18 17 17 17 17 17 17 18 19
1 2 2 1 1 2 1 2 2 1 3 6 5 1 3 3 3 4 6 5 5 5 6 6 7 8 9 8 6 5 6 7 7 7 7 7 6 7 8 10 13 16 18 19 19 21 23 25 25 24 25 27 29 29 30 31 32 32 33 32 31 30 28 27 27 28 27 26 24 23 21 20 19 18 19 19 19 18 17 17 17 17 17 17 18 19
1 2 2 1 1 2 1 1 2 2 3 6 6 2 0 2 3 5 5 4 5 6 7 6 5 6 7 7 7 8 8 8 8 7 7 6 7 7 8 10 14 17 19 21 23 23 24 23 23 24 25 27 30 31 31 33 34 34 34 32 31 30 28 28 29 29 28 27 25 24 23 22 20 20 19 19 19 18 18 17 18 18 18 18 18 19
1 3 2 2 3 2 1 1 2 2 2 4 5 4 4 4 4 5 3 2 4 4 5 5 4 6 6 7 9 9 9 8 8 8 7 7 7 7 9 13 16 18 21 23 23 23 23 23 25 26 27 30 32 33 33 34 35 36 35 33 31 30 29 29 30 30 29 27 26 25 24 22 21 20 19 19 19 19 18 18 18 19 19 17 17 18
2 3 3 2 1 0 1 1 1 3 4 4 5 6 7 6 5 5 4 2 4 4 5 5 5 6 7 8 9 9 9 9 8 8 8 7 7 7 10 15 18 20 22 22 22 22 24 26 28 28 30 33 34 33 33 35 36 36 37 35 33 31 31 32 31 30 29 27 26 25 24 22 21 21 20 19 20 19 19 18 18 19 19 18 17 18
3 4 3 3 1 3 3 5 4 2 2 5 7 8 10 7 5 5 4 5 6 7 7 7 6 6 6 9 9 9 10 10 8 8 8 7 8 10 14 17 18 19 22 22 21 21 24 27 29 30 32 34 33 31 32 34 35 35 36 36 35 34 33 33 32 30 29 28 27 26 24 22 22 21 20 19 19 19 18 18 17 18 19 19 18 17
5 6 5 4 3 5 5 8 7 4 3 5 6 8 9 7 7 7 8 8 9 8 7 8 7 6 7 10 11 12 10 9 10 10 8 9 12 15 16 17 18 19 22 23 21 21 24 27 28 29 31 33 32 31 32 33 34 35 36 37 37 35 34 34 32 30 30 29 28 25 23 22 21 20 19 19 18 18 18 18 17 17 18 18 18 17
Wind_Direction
110 121 199 223 205 186 197 199 193 149 111 128 133 131 181 221 263 237 236 297 338 159 270 248 244 268 271 267 269 329 27 103 121 117 105 101 91 80 79 62 47 57 20 14 32 42 50 57 64 71 77 82 85 87 92 97 99 100 104 107 106 107 112 114 113 112 110 105 101 96 91 87 84 83 81 78 75 74 73 71 70 68 68 69 69 69
88 172 228 227 183 173 195 192 160 125 116 113 129 161 227 231 251 256 225 312 347 193 258 294 271 269 264 268 299 341 171 127 146 152 149 143 129 95 81 57 23 31 7 26 37 41 50 59 66 73 79 83 83 84 89 94 96 99 104 106 103 105 110 112 112 114 110 107 106 102 97 94 88 85 83 80 76 76 76 74 71 71 71 70 69 68
91 223 239 218 140 119 122 154 167 185 168 121 121 155 237 230 251 288 297 337 19 183 262 344 283 269 268 268 351 353 233 227 315 175 163 164 143 108 89 66 34 39 15 23 28 33 45 56 66 73 77 81 83 85 89 92 95 99 102 103 102 102 104 105 108 110 108 107 107 105 101 99 94 88 86 85 82 80 79 76 73 72 70 69 68 67
175 246 244 180 134 116 87 123 152 168 187 167 146 158 233 225 194 272 289 337 12 125 271 342 310 275 272 280 43 353 357 60 6 49 62 83 129 108 104 67 53 64 35 27 19 26 42 54 64 71 76 82 87 89 92 94 96 99 101 102 103 103 103 104 105 107 108 108 107 105 102 101 97 93 92 90 86 83 81 78 75 73 71 70 69 68
219 254 222 130 141 144 129 121 142 163 228 222 192 194 227 222 207 234 274 331 344 8 39 118 321 289 271 260 243 315 12 37 30 60 51 32 61 69 75 51 38 56 39 38 22 22 39 52 62 71 80 86 89 91 92 96 99 102 105 107 108 109 109 109 109 110 111 111 109 108 105 103 99 94 91 88 83 82 81 78 76 75 74 73 71 69
249 246 117 114 147 155 144 162 180 180 206 268 223 211 220 217 211 226 352 18 353 336 321 148 281 285 307 288 244 255 2 308 15 61 108 354 26 53 79 58 33 39 26 34 31 25 42 60 73 79 84 88 89 92 95 100 104 108 111 114 115 116 116 116 116 116 116 115 115 114 108 102 97 89 83 83 83 82 82 81 80 78 76 74 73 71
250 237 115 123 143 147 151 213 222 172 147 264 243 210 213 203 185 177 133 102 215 257 296 79 184 255 316 312 261 214 208 242 292 272 240 260 280 201 188 210 7 42 45 42 33 37 56 71 80 82 85 90 92 97 102 105 108 110 113 115 118 119 121 123 123 124 124 120 116 110 103 98 95 92 88 87 88 87 87 86 84 81 79 77 75 74
195 172 120 135 127 132 164 225 218 158 138 236 250 167 172 176 182 179 158 174 223 249 318 10 146 226 291 283 263 186 203 241 241 236 245 233 220 218 222 229 208 189 131 101 38 38 67 80 86 89 92 96 100 105 109 110 111 112 113 114 116 117 118 121 122 124 122 116 109 103 100 98 97 97 97 95 93 92 91 89 85 83 81 78 76 75
162 176 190 172 146 167 197 215 186 158 153 241 215 124 141 157 166 155 148 181 249 341 287 281 157 210 266 270 293 135 230 250 221 204 219 214 205 203 209 219 209 201 191 174 175 125 95 100 101 103 104 106 109 112 112 113 114 115 116 116 116 116 116 117 119 117 112 108 106 104 103 102 102 102 101 100 97 95 93 90 87 84 82 80 77 76
131 211 199 160 160 199 200 236 178 165 182 200 134 96 81 78 84 97 126 136 72 216 239 225 182 200 268 279 286 123 245 250 205 187 206 196 191 198 200 204 202 200 196 189 184 171 140 125 119 117 116 114 114 115 115 116 117 118 118 118 116 115 115 115 114 111 109 108 107 107 108 107 107 106 105 103 99 96 94 91 88 85 83 81 78 77
320 281 201 149 172 183 134 65 117 142 142 140 115 78 58 42 43 51 66 89 74 267 246 219 191 194 258 271 235 204 229 208 151 163 194 178 186 200 202 199 193 190 183 182 182 173 157 137 132 128 123 119 119 120 119 119 119 119 118 117 114 113 114 114 113 111 110 110 109 109 111 111 111 110 107 103 98 96 94 91 89 86 84 81 78 76
342 345 242 195 151 126 101 68 39 61 104 113 98 96 88 6 11 24 358 49 171 251 262 261 201 183 229 257 238 231 240 187 156 170 179 178 189 196 198 198 190 186 180 175 178 173 164 148 141 135 128 125 126 124 121 120 119 119 118 117 115 114 115 115 115 114 113 112 111 112 112 111 110 109 105 101 97 95 93 90 89 86 83 79 75 72
287 224 235 242 161 140 115 88 41 26 65 88 97 118 120 331 359 345 292 242 228 248 273 295 195 190 234 249 244 231 218 203 191 183 177 178 184 188 194 192 183 184 178 175 180 176 172 165 157 146 137 133 130 126 124 122 122 121 121 121 119 116 117 118 118 117 115 113 112 112 111 109 107 105 101 99 96 94 91 89 86 81 78 74 69 64
276 289 223 152 249 186 154 153 156 174 169 153 150 146 146 144 130 242 255 262 256 255 291 286 225 225 262 266 251 225 209 211 213 213 195 183 182 185 187 178 175 185 182 181 180 176 180 178 171 159 147 141 136 131 129 127 126 126 125 124 122 120 120 121 120 119 116 113 112 110 109 107 105 102 99 96 94 92 88 85 81 77 72 68 63 59
212 287 206 176 211 185 177 184 159 143 155 176 161 140 154 163 168 210 216 217 243 263 310 294 208 186 201 269 278 247 271 292 272 251 230 200 186 177 167 164 175 188 187 182 177 184 189 181 176 168 156 149 143 139 136 134 133 132 129 128 126 124 125 124 122 120 116 113 111 109 107 106 104 101 97 94 91 88 85 81 77 73 68 64 60 54
182 267 246 234 276 170 177 188 115 115 139 204 126 114 177 187 148 156 193 178 185 289 294 231 225 218 197 258 315 350 326 310 318 305 211 201 180 160 166 178 183 193 189 182 180 189 191 182 178 174 165 158 151 147 144 141 139 137 133 132 130 128 128 127 124 121 117 115 113 110 108 105 102 99 96 93 89 84 81 76 71 68 63 58 53 47
144 278 281 357 5 165 177 181 124 131 174 152 137 175 213 175 115 113 237 55 82 258 260 192 232 292 310 283 318 24 328 294 314 309 202 189 171 168 185 189 191 198 189 183 185 184 184 182 182 180 173 166 159 154 150 146 144 142 140 138 135 132 132 130 127 124 121 119 116 112 109 105 101 97 93 90 86 81 76 70 65 60 56 50 43 36
150 260 287 101 159 263 219 142 80 31 138 126 179 207 181 120 93 106 232 345 47 243 270 211 211 241 159 246 317 10 295 258 232 227 196 184 180 185 195 195 197 197 183 184 186 180 181 182 184 185 180 173 166 160 153 149 147 146 145 144 141 138 137 135 131 128 125 122 118 114 110 106 101 96 91 87 83 77 71 65 59 53 48 43 35 28
147 218 291 57 168 264 342 123 86 359 78 132 184 185 118 148 173 108 181 227 201 241 286 291 231 223 192 207 217 208 230 229 206 193 199 197 192 193 198 199 198 191 185 190 186 175 178 182 187 188 184 178 170 163 157 153 151 150 149 147 145 142 139 137 134 131 128 125 120 115 111 106 100 95 90 85 80 75 69 63 57 50 44 38 31 23
131 185 267 331 208 215 26 163 174 205 337 69 114 125 94 158 170 156 166 171 179 218 284 289 252 233 226 207 185 200 216 203 177 190 208 206 200 198 197 195 195 193 194 191 179 171 176 184 190 189 185 181 173 168 163 159 157 155 153 151 148 146 143 141 139 136 132 128 123 118 113 106 100 95 89 85 80 74 68 61 53 46 39 33 26 19
118 184 229 311 325 166 188 219 195 183 172 143 151 162 169 144 128 189 209 126 139 170 208 275 282 254 244 206 187 213 232 196 186 197 205 203 202 204 200 196 195 195 193 183 170 169 177 186 191 189 187 183 176 173 170 167 165 162 160 158 155 152 150 148 145 141 136 131 127 121 115 109 104 99 95 90 82 71 63 53 45 39 33 26 19 13
159 176 173 168 191 189 230 260 215 190 181 169 180 183 182 173 138 177 241 194 130 175 179 216 271 257 228 184 193 227 244 216 205 198 198 204 203 203 203 200 198 193 186 175 162 167 179 188 191 189 187 184 180 179 176 174 173 170 167 165 162 161 158 155 151 146 141 135 131 126 121 118 114 109 102 92 78 64 55 45 37 32 24 17 11 7
136 128 143 182 208 212 251 291 28 206 156 149 203 193 177 182 155 174 224 211 143 213 136 119 271 268 235 206 211 232 243 237 216 194 195 207 200 197 202 200 198 190 175 161 161 175 185 189 190 188 187 186 185 183 181 180 179 176 173 172 171 170 167 162 157 151 147 143 140 137 134 129 124 117 108 93 76 58 46 34 27 22 14 9 4 360
119 126 150 237 306 312 307 333 29 36 65 169 239 182 166 195 178 181 209 149 158 203 132 128 253 255 242 233 225 246 257 245 219 197 189 196 196 196 198 196 191 180 169 167 172 179 183 187 189 190 189 189 188 187 186 185 183 181 181 181 180 178 173 168 163 158 156 155 153 149 145 143 139 137 130 109 77 44 31 21 15 10 4 0 356 353
185 160 142 152 324 337 332 333 311 293 231 220 222 182 186 177 129 104 108 102 207 194 146 186 244 233 212 247 246 265 248 219 221 203 183 191 200 199 197 195 190 178 175 179 176 174 178 184 190 192 192 191 191 191 190 188 187 187 188 189 188 185 180 175 170 168 167 167 164 161 162 166 168 167 166 156 37 359 3 3 1 358 354 351 348 346
178 175 163 177 196 204 205 213 218 199 184 223 196 182 198 180 162 164 138 168 227 182 155 202 240 239 201 209 220 225 158 186 215 209 209 214 205 202 198 192 189 184 185 184 176 175 181 188 193 195 195 194 194 193 191 191 192 192 193 193 191 190 186 181 178 177 176 176 177 179 183 186 187 191 202 223 266 304 330 343 347 346 343 341 340 339
140 182 197 205 213 207 197 207 197 141 147 194 198 183 193 191 181 173 153 195 200 161 198 220 212 239 250 201 209 231 184 191 203 197 219 230 212 206 199 188 187 187 186 179 174 181 190 195 197 197 197 197 196 195 194 195 196 196 196 195 194 194 192 188 186 185 185 187 190 193 196 197 203 211 222 239 262 286 308 327 334 334 334 334 335 335
129 209 209 211 223 211 167 163 162 135 151 181 186 186 193 188 181 186 204 206 146 149 237 222 143 205 251 207 201 223 203 199 203 200 214 216 201 196 182 180 184 178 175 176 184 194 197 199 200 199 200 198 197 197 198 199 200 199 199 197 196 197 197 196 194 193 193 196 199 201 203 207 215 222 231 245 262 280 298 313 321 324 326 328 330 331
156 215 204 195 214 200 150 153 158 133 140 173 184 192 190 183 183 195 215 212 158 192 245 231 136 228 254 220 202 211 199 193 196 197 194 175 175 180 170 178 183 180 185 190 197 202 202 203 203 201 201 198 196 198 200 201 202 202 201 201 200 201 202 202 201 200 201 203 205 207 210 215 222 228 237 250 262 275 291 304 311 316 321 325 327 328
167 206 176 174 208 208 180 177 169 163 172 200 222 219 205 197 195 200 221 226 211 232 260 263 225 244 249 203 197 203 183 177 174 160 157 164 179 179 174 185 189 189 196 202 207 209 208 210 207 201 198 197 198 200 202 204 205 205 205 205 205 206 206 206 206 206 207 209 210 213 216 221 228 234 242 252 262 272 285 298 305 313 319 322 325 326
201 203 130 139 215 232 180 154 168 190 188 222 248 240 219 213 221 220 228 229 223 239 245 229 227 244 240 181 187 178 113 132 160 170 182 197 193 175 182 198 202 202 205 210 214 215 213 211 204 197 197 199 202 204 205 208 209 208 209 210 210 210 210 209 210 211 213 215 215 217 221 226 231 237 243 250 259 269 281 293 302 311 317 321 323 323
197 193 95 123 206 234 166 141 161 148 106 254 257 244 197 199 227 226 224 216 210 223 226 214 224 241 224 170 177 168 143 165 193 196 199 212 200 186 198 211 216 219 219 220 218 210 207 205 200 199 202 204 206 206 208 210 209 209 212 214 215 215 213 213 214 216 218 219 219 221 225 228 231 236 242 248 256 268 280 291 301 311 315 318 319 319
172 162 139 164 186 236 328 147 139 105 77 262 255 220 185 205 223 225 232 219 209 211 212 216 227 223 170 162 180 187 182 196 213 212 210 214 204 201 213 220 227 233 232 232 224 209 206 205 204 206 207 207 208 209 211 211 210 213 217 218 218 217 216 216 217 219 220 220 222 224 225 228 231 234 239 246 255 267 280 290 300 310 313 315 316 318
175 166 170 183 168 200 292 126 119 140 216 246 263 179 191 210 213 215 227 219 205 206 205 209 207 157 147 171 186 190 195 206 219 219 216 212 201 203 218 225 230 234 232 228 221 214 212 209 209 211 211 212 214 214 214 213 215 219 221 219 219 218 217 218 218 219 221 221 223 225 226 227 229 232 238 245 256 268 279 289 300 308 310 311 314 316
180 180 175 153 134 135 159 135 149 208 228 251 340 340 225 217 211 219 238 231 209 212 218 174 159 166 177 189 187 183 188 195 223 227 219 212 195 186 202 225 229 228 225 222 216 214 210 206 207 210 212 215 216 215 214 215 217 220 220 219 218 217 217 218 217 218 220 222 223 224 224 225 226 230 237 245 257 268 278 290 300 305 307 309 312 314
175 179 151 123 134 118 142 183 199 238 273 300 312 308 44 109 138 190 275 256 219 207 209 209 210 211 207 200 179 151 156 148 315 247 219 217 205 185 196 217 218 210 210 208 204 204 205 204 205 208 211 213 213 212 214 216 217 217 218 218 218 216 216 216 216 218 220 221 222 223 222 223 225 229 237 248 259 270 281 292 300 303 305 308 310 313
175 173 152 175 185 148 164 212 250 334 299 260 247 226 165 148 152 156 217 252 229 186 179 195 221 234 226 185 133 117 110 75 343 279 223 211 208 201 207 215 208 206 212 210 207 207 207 205 204 205 206 207 207 210 214 216 215 214 213 213 213 213 213 213 216 219 220 221 222 221 221 221 224 231 241 252 263 273 284 293 298 300 303 307 309 312
181 183 183 200 202 149 159 225 277 293 263 240 210 186 147 147 154 142 147 279 255 181 178 186 210 226 217 143 132 125 89 64 299 272 226 207 206 204 214 223 215 212 214 209 204 203 200 199 200 200 200 202 205 210 213 213 212 210 209 209 209 209 211 213 217 220 220 221 220 218 219 221 226 236 246 256 267 276 285 292 296 299 303 307 309 311
93 113 181 201 202 160 180 224 227 237 253 235 203 248 222 161 136 104 67 296 240 193 185 183 203 218 194 150 150 132 107 152 253 259 226 202 200 193 199 213 216 216 216 205 196 194 192 191 193 195 198 203 208 213 214 212 210 208 208 210 210 210 212 216 220 222 221 220 217 216 219 224 231 241 251 260 269 276 283 290 294 298 303 306 308 309
109 102 177 206 212 192 199 227 236 242 260 217 195 210 227 191 114 95 28 272 228 199 186 178 199 212 167 143 149 148 159 193 227 245 223 184 180 188 195 198 199 203 207 201 196 196 195 192 191 193 199 207 213 216 215 212 209 208 211 213 210 211 217 222 224 222 219 216 215 217 222 228 235 245 253 261 268 274 282 290 294 298 302 304 305 306
142 142 194 211 219 213 215 230 260 257 235 210 198 184 173 128 82 118 221 234 184 191 195 185 194 186 146 147 162 182 204 202 190 208 188 143 149 184 203 206 203 203 205 205 202 201 200 200 201 203 208 213 215 216 213 208 206 208 210 210 210 215 223 226 223 219 215 214 216 220 225 231 238 246 253 260 267 274 282 288 293 296 299 300 302 303
168 149 197 211 215 223 223 232 268 265 204 153 149 167 159 135 132 207 224 188 160 182 194 194 184 163 158 172 184 201 216 184 144 141 158 162 172 195 204 205 205 208 211 211 209 207 204 205 206 208 214 217 216 216 213 208 207 209 208 208 215 223 227 224 220 216 215 215 218 222 227 233 239 245 252 260 267 275 281 285 288 292 295 298 300 301
168 155 186 202 189 170 211 216 236 260 183 138 124 95 239 198 195 195 162 104 157 170 174 188 188 175 174 181 197 218 217 160 151 178 191 208 230 230 209 200 201 208 210 206 207 209 207 207 209 211 216 218 217 216 213 210 210 210 208 214 223 227 225 221 218 216 216 218 220 224 228 234 240 246 253 261 268 273 276 280 284 288 291 294 296 298
184 169 191 206 185 156 190 215 220 187 172 161 146 155 206 197 174 157 145 146 196 174 168 186 196 191 186 184 199 217 214 188 203 207 198 222 238 234 227 214 208 212 215 211 212 211 207 208 212 215 217 218 218 216 214 213 213 211 213 222 227 225 221 219 217 216 217 219 221 225 230 235 241 248 254 259 265 268 271 276 280 282 286 289 292 294
211 173 174 197 200 177 182 201 192 111 178 184 177 186 189 170 155 155 144 145 189 191 175 187 194 193 196 196 196 200 202 210 219 209 199 218 227 220 225 224 216 216 220 220 219 216 212 212 215 217 218 219 219 218 217 216 215 214 219 226 226 222 220 218 215 216 218 220 222 226 232 237 241 247 252 256 261 264 268 272 274 277 282 284 287 291
225 129 146 152 234 257 251 141 136 119 193 209 225 229 133 139 168 163 143 155 192 186 175 187 193 192 195 195 188 193 209 213 214 215 214 220 230 227 225 229 230 227 226 225 225 223 220 219 218 219 220 221 220 219 219 218 217 219 225 228 224 221 220 217 216 218 218 220 224 228 232 237 241 244 249 253 258 261 264 268 271 274 278 281 284 287
281 135 136 135 229 254 295 102 142 165 197 212 224 240 189 210 200 173 165 178 184 182 188 193 180 173 181 184 186 204 218 211 205 216 220 217 226 230 222 226 233 232 229 229 230 227 223 220 219 220 222 224 224 223 223 222 221 223 227 227 223 220 218 216 217 218 218 220 224 228 232 236 239 242 246 251 255 258 261 265 268 271 274 278 283 285
231 138 141 210 216 199 194 230 249 273 266 235 225 231 243 233 208 201 213 175 130 155 185 184 156 150 166 186 197 208 220 214 204 210 216 215 221 224 217 223 231 235 236 236 234 229 223 220 221 223 224 227 229 228 226 226 225 224 223 224 222 219 216 217 218 219 220 222 224 228 233 235 237 241 244 249 253 256 259 262 266 270 274 278 282 282
147 153 174 181 181 233 284 233 268 349 328 285 244 234 241 231 202 207 222 174 147 166 178 193 198 181 180 196 200 202 217 221 210 208 215 219 222 219 217 223 229 235 239 240 237 231 225 224 226 227 229 232 234 232 230 230 229 226 223 223 222 218 216 217 218 218 220 222 224 228 232 234 237 240 243 246 251 255 258 262 265 270 274 276 277 279
142 182 181 119 146 252 225 184 171 145 262 245 226 225 234 224 186 183 197 193 204 205 189 198 220 216 212 218 203 191 210 223 214 208 218 225 225 222 222 225 230 236 241 243 241 235 230 230 231 232 234 238 238 236 235 235 233 229 225 223 221 218 216 216 215 215 218 221 224 227 230 233 238 241 243 246 251 254 258 262 265 270 275 278 279 282
179 197 183 155 195 226 196 182 186 185 213 228 215 216 228 212 173 190 215 216 219 217 193 191 209 219 229 231 212 198 209 223 212 204 214 235 237 232 230 229 230 236 242 242 238 234 232 234 234 234 237 241 240 237 237 238 236 232 227 223 221 218 217 216 215 215 218 221 224 227 230 235 239 242 245 248 252 257 262 265 266 268 274 280 282 281